Nome, AK

10:26 AM AKDT on October 22, 2017 (GMT -0800)
Nome

Weather History for PAOM - June, 2013

Change the Weather History Date:

Friday, June 28, 2013

  Actual Average Record
Temperature  
Mean Temperature 47 °F 51 °F  
Max Temperature 48 °F 58 °F 81 °F (2004)
Min Temperature 45 °F 44 °F 30 °F (1970)
Degree Days  
Heating Degree Days 18 14  
Month to date heating degree days 446 488  
Since 1 June heating degree days 446 488  
Since 1 July heating degree days 14231 13672  
Cooling Degree Days 0 0  
Month to date cooling degree days 7 0  
Year to date cooling degree days 7 0  
Since 1 June cooling degree days 7 0  
Moisture  
Dew Point 44 °F    
Average Humidity 0    
Maximum Humidity 0    
Minimum Humidity 0    
Precipitation  
Precipitation 0.14 in 0.04 in 0.95 in (2006)
Month to date precipitation 1.61 0.90  
Year to date precipitation 5.86 5.04  
Snow  
Snow 0.00 in 0.00 in 0.00 in ()
Month to date snowfall 0.1 0.3  
Since 1 June snowfall 0.1 0.3  
Since 1 July snowfall 65.8 75.7  
Snow Depth 0.00 in    
Sea Level Pressure  
Sea Level Pressure 30.05 in    
Wind  
Wind Speed 6 mph (South)    
Max Wind Speed 12 mph    
Max Gust Speed 14 mph    
Visibility 9 miles    
Events Rain    
T = Trace of Precipitation, MM = Missing Value Source: NWS Daily Summary

Daily Weather History Graph

Daily Weather History Graph

Search for Another Location

Airport or City:

Trip Planner

Search our weather history database for the weather conditions in past years. The results will help you decide how hot, cold, wet, or windy it might be!

Date:

Astronomy

Jun. 28, 2013 Rise Set
Actual Time 4:26 AM AKDT 1:42 AM AKDT
Civil Twilight Sun does not rise Sun does not rise
Nautical Twilight Sun does not rise Sun does not rise
Astronomical Twilight Sun does not rise Sun does not rise
Moon 1:49 AM AKDT (6/28) 1:58 PM AKDT (6/28)
Length of Visible Light 24h 00m
Length of Day
21h 16m
Waning Gibbous, 65% of the Moon is Illuminated
Jun 28
Waning Gibbous
Jun 29
Last Quarter
Jul 7
New
Jul 15
First Quarter
Jul 22
Full

Hourly Weather History & Observations

Time (AKDT) Temp. Windchill Dew Point Humidity Pressure Visibility Wind Dir Wind Speed Gust Speed Precip Events Conditions
12:53 AM 45.0 °F 40.1 °F 43.0 °F 93% 30.04 in 7.0 mi SSW 9.2 mph - 0.02 in Rain Light Rain
1:53 AM 45.0 °F 39.7 °F 43.0 °F 93% 30.05 in 9.0 mi SW 10.4 mph - 0.03 in Rain Light Rain
2:53 AM 45.0 °F 40.1 °F 43.0 °F 93% 30.05 in 10.0 mi SW 9.2 mph - 0.01 in Rain Light Rain
3:53 AM 45.0 °F 40.1 °F 43.0 °F 93% 30.06 in 10.0 mi SW 9.2 mph - 0.01 in Rain Light Rain
4:53 AM 45.0 °F 40.6 °F 43.0 °F 93% 30.06 in 10.0 mi SSW 8.1 mph - 0.01 in Rain Light Rain
5:53 AM 45.0 °F 40.6 °F 43.0 °F 93% 30.06 in 10.0 mi SSW 8.1 mph - 0.01 in Rain Light Rain
6:53 AM 45.0 °F 40.6 °F 43.0 °F 93% 30.06 in 10.0 mi SSW 8.1 mph - 0.00 in   Overcast
7:53 AM 45.0 °F 41.2 °F 43.0 °F 93% 30.06 in 10.0 mi SSW 6.9 mph - N/A   Overcast
8:53 AM 45.0 °F 41.8 °F 43.0 °F 93% 30.07 in 10.0 mi SSW 5.8 mph - N/A   Overcast
9:41 AM 46.4 °F 43.5 °F 42.8 °F 87% 30.07 in 10.0 mi South 5.8 mph - N/A   Overcast
9:53 AM 46.0 °F 43.1 °F 43.0 °F 89% 30.07 in 10.0 mi SSW 5.8 mph - N/A   Overcast
10:53 AM 46.0 °F 43.9 °F 43.0 °F 89% 30.07 in 10.0 mi SW 4.6 mph - N/A   Overcast
11:53 AM 46.0 °F 43.9 °F 43.0 °F 89% 30.07 in 10.0 mi South 4.6 mph - N/A   Overcast
12:53 PM 46.9 °F - 43.0 °F 86% 30.08 in 10.0 mi SSE 4.6 mph - N/A   Overcast
1:53 PM 46.9 °F - 43.0 °F 86% 30.08 in 10.0 mi SSE 4.6 mph - N/A   Overcast
2:53 PM 46.0 °F 43.9 °F 44.1 °F 93% 30.08 in 4.0 mi South 4.6 mph - N/A   Overcast
3:17 PM 46.4 °F 43.5 °F 44.6 °F 93% 30.08 in 2.0 mi South 5.8 mph - 0.00 in Rain Light Rain
3:31 PM 46.4 °F 43.5 °F 44.6 °F 93% 30.08 in 3.0 mi South 5.8 mph - 0.01 in   Light Drizzle
3:53 PM 46.0 °F 43.9 °F 45.0 °F 96% 30.09 in 3.0 mi South 4.6 mph - 0.01 in   Light Drizzle
4:53 PM 46.9 °F - 45.0 °F 93% 30.07 in 2.5 mi South 4.6 mph - 0.01 in   Overcast
5:21 PM 46.4 °F 44.3 °F 44.6 °F 93% 30.06 in 3.0 mi South 4.6 mph - 0.00 in   Light Drizzle
5:53 PM 46.9 °F - 45.0 °F 93% 30.06 in 10.0 mi South 3.5 mph - 0.00 in   Overcast
6:53 PM 46.9 °F - 45.0 °F 93% 30.05 in 10.0 mi SSE 4.6 mph - 0.00 in Rain Light Rain
7:53 PM 46.9 °F - 45.0 °F 93% 30.05 in 10.0 mi South 4.6 mph - 0.02 in Rain Light Rain
8:53 PM 46.9 °F - 45.0 °F 93% 30.04 in 10.0 mi SSE 5.8 mph - 0.02 in Rain Light Rain
9:16 PM 46.4 °F 45.2 °F 44.6 °F 93% 30.04 in 10.0 mi SE 3.5 mph - 0.00 in Rain Light Rain
9:30 PM 46.4 °F 45.2 °F 44.6 °F 93% 30.03 in 10.0 mi East 3.5 mph - 0.00 in Rain Light Rain
9:53 PM 48.0 °F - 45.0 °F 89% 30.03 in 10.0 mi East 3.5 mph - 0.00 in Rain Light Rain
10:13 PM 46.4 °F 45.2 °F 44.6 °F 93% 30.02 in 10.0 mi ESE 3.5 mph - 0.01 in Rain Light Rain
10:30 PM 48.2 °F - 44.6 °F 87% 30.02 in 10.0 mi NE 4.6 mph - 0.01 in Rain Light Rain
10:46 PM 48.2 °F - 44.6 °F 87% 30.01 in 10.0 mi East 3.5 mph - 0.01 in Rain Light Rain
10:53 PM 46.9 °F - 45.0 °F 93% 30.01 in 10.0 mi ESE 3.5 mph - 0.01 in Rain Light Rain
11:31 PM 46.4 °F 45.2 °F 44.6 °F 93% 30.02 in 10.0 mi SE 3.5 mph - 0.00 in   Overcast
11:53 PM 48.0 °F - 46.0 °F 93% 30.02 in 10.0 mi East 3.5 mph - 0.00 in   Overcast